www.pogodaiklimat.ru
ПОГОДА в Крапивино
Время
(UTC), дата
03 6.08
06 6.08
09 6.08
12 6.08
15 6.08
18 6.08
21 6.08
00 7.08
03 7.08
06 7.08
09 7.08
12 7.08
15 7.08
18 7.08
21 7.08
00 8.08
03 8.08
06 8.08
09 8.08
12 8.08
15 8.08
18 8.08
21 8.08
00 9.08
03 9.08
06 9.08
09 9.08
12 9.08
15 9.08
18 9.08
21 9.08
00 10.08
03 10.08
06 10.08
09 10.08
12 10.08
15 10.08
18 10.08
21 10.08
00 11.08
03 11.08
06 11.08
09 11.08
12 11.08
15 11.08
18 11.08
21 11.08
00 12.08
03 12.08
06 12.08
09 12.08
12 12.08
15 12.08
18 12.08
21 12.08
00 13.08
Ветер
(напр.,м/с)
Видим. Явления Облачность Т
(С)
Тd
(С)
f
(%)
Тe
(С)
Тes
(С)
Комфортность P
(гПа)
Po
(гПа)
Тmin
(С)
Tmax
(С)
R
(мм)
R24
(мм)
S
(см)
В 1 20 км {ливн. дождь} 3/0
[Ci fib]
+16.9 +13.2 79 +18 +25 1012.4 994.7
В 1 50 км {ливн. дождь} 3/3 600 м
[Cb cap Ac lent]
+24.2 +14.0 53 +27 +39 жарко 1012.0 994.7
З 5
{11}
50 км в посл. час гроза 5/5 600 м
[Cb cap]
+27.0 +10.1 35 +28 +30 жарко 1009.6 992.3
В 1 50 км гроза без осадков 9/6 600 м
[Cb cap Ac trans]
+20.4 +14.2 68 +24 +24 комфорт 1011.1 993.4 +27.3 0.3
ЮВ 1 20 км в посл. час ливневой дождь {гроза} 8/5 600 м
[Cb cap Ac lent Ci fib]
+16.2 +14.0 87 +17 +17 1013.8 996.0
Ю 1 4000 м дымка {гроза, ливн. дождь} 5/1 1000 м
[Sc Ac trans]
+14.4 +12.9 91 +15 +15 1012.6 994.7
ЮВ 1 1000 м дымка {ливн. дождь} 9/4 600 м
[Cb cap Ac trans Ci fib]
+14.3 +13.0 92 +15 +15 1012.6 994.7
ЮВ 1 4000 м дымка {ливн. дождь} 9/5 600 м
[Cb cap Ac trans]
+14.3 +12.9 91 +15 +15 1012.3 994.3 +13.7 2
В 1 20 км 9/6 600 м
[Cb cap Ac trans]
+16.7 +14.0 84 +18 +18 1013.8 996.0
СВ 1 50 км 8/4 1000 м
[Cu med, cong Ac trans Ci fib]
+22.2 +15.1 64 +26 +30 душно 1012.1 994.7
штиль 0 50 км гроза без осадков {ливн. дождь} 9/6 600 м
[Cb cap Ac trans Ci fib]
+18.8 +13.6 72 +20 +21 1012.3 994.7
Ю 1 50 км {гроза, ливн. дождь} 9/4 600 м
[Cb cap Ac lent Ci fib]
+20.3 +16.8 80 +24 +25 комфорт 1010.8 993.1 +24.5 1
СЗ 1 50 км 10/6 600 м
[Cb cap Ac As]
+18.4 +15.5 83 +20 +20 1012.3 994.7
штиль 0 50 км 6/0
[Ac trans Ci fib]
+14.9 +13.3 90 +15 +15 1012.6 994.7
З 1 1000 м дымка ясно +14.5 +13.0 91 +15 +15 1011.2 993.3
штиль 0 500 м туман ясно +14.5 +13.2 92 +14 +15 1010.9 992.9 +13.9
СВ 1 20 км {туман} 3/0
[Ci fib]
+19.7 +15.5 77 +23 +30 комфорт 1012.2 994.7
В 1 50 км {туман} 4/1 1000 м
[Cu med, cong Ci fib]
+24.8 +14.3 52 +27 +36 жарко 1010.5 993.3
С 6-10
{10}
50 км 6/6 600 м
[Cb cap]
+24.6 +15.5 57 +28 +29 душно 1009.0 991.7
штиль 0
{10}
50 км {гроза, ливн. дождь} 9/6 600 м
[Cb cap Ac trans Ci fib]
+23.6 +17.6 69 +28 +28 душно 1008.3 990.9 +27.9 4
штиль 0 20 км 8/0
[Ci fib]
+19.3 +17.3 88 +21 +21 комфорт 1009.5 992.0
штиль 0 500 м туман ясно +17.6 +16.3 92 +18 +18 1008.3 990.7
штиль 0 500 м туман ясно +14.0 +12.7 92 +14 +14 1008.5 990.7
штиль 0 500 м туман ясно +13.4 +12.1 92 +13 +14 1007.8 989.7 +12.6
штиль 0 20 км {туман} ясно +23.1 +15.2 61 +27 +37 душно 1006.5 989.3
В 2 20 км {туман} 1/1 1000 м
[Cu hum]
+28.0 +13.9 42 +30 +42 жарко 1006.3 989.3
СВ 2 20 км 3/3 1000 м
[Cu med, cong]
+29.7 +11.2 32 +30 +37 жарко 1004.9 988.0
СВ 1 20 км ясно +28.7 +11.0 33 +29 +31 жарко 1003.0 986.0 +30.1
В 1 20 км ясно +22.4 +12.3 53 +25 +25 комфорт 1004.0 986.7
штиль 0 20 км ясно +15.6 +12.5 82 +15 +15 1004.4 986.7
штиль 0 20 км 3/0
[Ac trans]
+12.9 +11.1 89 +12 +12 1004.5 986.7
штиль 0 20 км местами туман поземный ясно +13.1 +11.1 88 +13 +14 1003.8 985.8 +11.8
СВ 1 20 км ясно +23.4 +14.7 58 +27 +36 душно 1003.9 986.7
В 1 20 км ясно +28.9 +9.1 29 +29 +44 жарко 1002.2 985.3
В 1 20 км ясно +30.3 +8.1 25 +29 +39 жарко 1000.8 984.0
штиль 0 20 км 3/3 600 м
[Cb cap]
+29.9 +9.5 28 +30 +31 жарко 1000.1 983.2 +30.9
штиль 0 20 км 1/0
[Ci fib]
+19.7 +15.5 77 +22 +22 комфорт 1002.7 985.3
штиль 0 20 км ясно +14.6 +12.3 86 +14 +14 1003.0 985.3
Ю 1 20 км ясно +12.8 +11.0 89 +13 +13 1001.8 984.0
штиль 0 20 км 3/0
[Ac trans Ci fib]
+13.4 +11.4 88 +13 +14 1002.0 984.1 +11.8
В 1 20 км 3/0
[Ci fib]
+23.2 +15.5 62 +27 +34 душно 1002.5 985.3
В 1 20 км 3/0
[Ci fib]
+28.9 +15.0 43 +31 +43 жарко 1000.8 984.0
ЮВ 1 20 км 6/5 600 м
[Cb cap Ci fib]
+29.6 +12.1 34 +30 +34 жарко 1000.8 984.0
штиль 0 20 км 9/4 600 м
[Cb cap Ci fib]
+27.1 +16.0 51 +30 +31 душно 999.6 982.5 +31.3
Ю 1 20 км 8/3 600 м
[Cb cap Ac lent Ci fib]
+20.9 +16.7 77 +26 +26 душно 1002.6 985.3
ЮВ 1 20 км ясно +18.3 +15.4 83 +20 +20 1001.4 984.0
Ю 1 20 км ясно +15.6 +13.6 88 +16 +16 1001.6 984.0
ЮВ 1 20 км 8/0
[Ac lent Ci fib]
+16.7 +13.6 82 +18 +18 1000.9 983.2 +14.6
ЮВ 2 50 км 6/0
[Ac lent Ci fib]
+24.5 +14.9 55 +27 +30 жарко 1001.1 984.0
ЮВ 2 50 км 2 балла +28.7 +14.5 42 +31 +41 жарко 999.5 982.7
З 3 50 км гроза без осадков 9 баллов +23.4 +14.9 59 +27 +28 душно 999.8 982.7
С 1 50 км {гроза, ливн. дождь} 6/3 600 м
[Cb cap Ac lent Ci fib]
+26.6 +14.9 49 +29 +30 жарко 999.8 982.7 +29.9 0.0
ЮВ 1 50 км 6 баллов +21.2 +14.8 67 +24 +24 комфорт 1002.6 985.3
ЮВ 2 50 км ясно +18.7 +14.6 77 +20 +20 1001.4 984.0
ЮВ 1 50 км 2 балла +15.9 +13.4 85 +17 +17 1001.6 984.0
Ю 1 50 км 8/3 1000 м
[Sc Ac trans Cc]
+16.4 +13.4 82 +17 +18 1001.9 984.1 +14.6
Местоположение метеостанции Крапивино (Кемеровская область, Россия): широта 55.00 долгота 86.82 высота над уровнем моря 151 м.
В архиве по умолчанию представлена погода в Крапивино за последнюю неделю. Архивные данные за месяц целиком и за предыдущие месяцы, начиная с января 2011 года, Вы можете получить, выбрав интересующий диапазон дат из раскрывающегося списка и нажав кнопку "Найти!".
*Определитесь, кто Вы:
Внимание! Время в таблицах - всемирное. Для получения местного времени необходимо прибавить поправку, которая равна 7 ч.
Смотрите также архив погоды в соседних городах и на ближайших метеорологических станциях:
Партнеры нашего сайта:      
Пояснения к столбцам:
  • Ветер - указаны скорость ветра в м/с - средняя за 10 мин, порывы в срок и между сроками (в фигурных скобках) и направление, откуда дует ветер: С - северный,
  • СВ - северо-восточный, В - восточный, ЮВ - юго-восточный, Ю - южный, ЮЗ - юго-западный, З - западный, СЗ - северо-западный.
  • Видимость - горизонтальная дальность видимости в метрах или километрах. При видимости от 1 до 10 км при отсутствии осадков обычно наблюдается дымка, при ухудшении видимости до 1 км и менее - туман. В сухую погоду видимость может ухудшаться дымом, пылью или мглою.
  • Явления - указаны атмосферные явления, наблюдавшиеся в срок или в последний час перед сроком; фигурными скобками обозначены явления, наблюдавшиеся между сроками (за 1-3 часа до срока); квадратными скобками обозначены град или гололедные отложения с указанием их диаметра в мм.
  • Облачность - указаны через наклонную черту общая и нижняя облачность в баллах и высота нижней границы облаков в метрах; квадратными скобками обозначены формы облаков: Ci - перистые, Cs - перисто-слоистые, Cc - перисто-кучевые, Ac - высококучевые, As - высокослоистые, Sc - слоисто-кучевые, Ns - слоисто-дождевые, Cu - кучевые, Cb - кучево-дождевые. Подробнее классификацию облаков см. в Атласе облаков (PDF).
  • T - Температура воздуха - температура, измеренная на высоте 2 м над землей.
  • Td - Температура точки росы - температура, при понижении до которой содержащийся в воздухе водяной пар достигнет насыщения.
  • f - Относительная влажность воздуха - влажноcть воздуха, измеренная на высоте 2 м над землей.
  • Te - Эффективная температура - температура, которую ощущает одетый по сезону человек в тени. Характеристика душности погоды. При расчете учитывается влияние влажности воздуха и скорости ветра на теплоощущения человека.
  • Tes - Эффективная температура на солнце - температура, которую ощущает человек, с поправкой на солнечный нагрев. Характеристика знойности погоды. Зависит от высоты солнца над горизонтом, облачности и скорости ветра. Ночью, в пасмурную погоду, а также при ветре 12 м/с и более поправка равна нулю.
  • P - Атмосферное давление - приведенное к уровню моря атмосферное давление.
  • Po - Атмосферное давление - измеренное на уровне метеостанции атмосферное давление.
  • Tmin - Минимальная температура - минимум температуры воздуха на высоте 2 м над землей.
  • Tmax - Максимальная температура - максимум температуры воздуха на высоте 2 м над землей.
  • R - Количество осадков - Количество выпавших осадков за период времени, мм. При наведении курсора мыши на число - период времени, за который выпало указанное количество осадков.
  • R24 - Количество осадков - Количество выпавших осадков за 24 часа, мм.
  • S - Снежный покров - Высота снежного покрова, см. При наведении курсора мыши на число - состояние снежного покрова и степень покрытия местности в баллах.